Location: Rowland
(34.5359°N, 79.2929°W)
Time: 13:25:04
(UTC+00:00)

SR - Pass Details

Date: 12 October 2022
Orbit: 577 x 875 km, 66.7° (Epoch: 28 November)

Event Time Altitude Azimuth Distance (km) Brightness Sun altitude
Rises 22:16:04 0° 175° (S) 3,393 ? 5.3°
Reaches altitude 10° 22:18:50 10° 163° (SSE) 2,488 ? 4.7°
Maximum altitude 22:23:39 28° 107° (ESE) 1,593 ? 3.8°
Drops below altitude 10° 22:28:32 10° 51° (NE) 2,524 ? 2.8°
Sets 22:31:20 0° 40° (NE) 3,452 ? 2.2°
